[[{"header":{"parameterUnit":"m.s-1","parameterCategory":1,"la1":30.2991,"la2":30.254,"lo1":-89.0895,"lo2":-89.0444,"dy":0.0017,"dx":0.0017,"nx":28,"ny":28,"refTime":"2024-06-20T21:00:00:Z","depth":0,"parameterNumber":2,"parameterNumberName":"U-component_of_WINDS"},"data":[0,0,0,0,0,0,0,0,0,0,0,0,0,0,0,0,0,0,0,0,0,0,0,0,0,0,0,0,0,0,0,0,0,0,0,0,0,0,0,0,0,0,0,0,0,0,0,0,0,0,0,0,0,0,0,0,0,0,-1.1647,-1.1647,0,-1.1645,-1.1645,-1.1645,-1.167,-1.1671,-1.1672,-1.1672,-1.1667,-1.1666,-1.1665,0,0,0,0,0,0,0,0,0,0,0,0,0,-1.1668,-1.1668,-1.1647,-1.1647,-1.1647,-1.1645,-1.1645,-1.1645,-1.167,-1.1671,-1.1672,-1.1673,-1.1667,-1.1666,-1.1665,0,0,0,0,0,0,0,0,0,0,0,0,0,-1.1662,-1.1668,-1.1647,-1.1659,-1.166,-1.1645,-1.1645,-1.1645,-1.167,-1.1671,-1.1672,-1.1673,-1.1667,-1.1666,-1.1665,-1.1637,0,0,-1.1661,-1.1661,0,0,0,0,0,0,0,0,-1.1662,-1.1661,-1.1657,-1.1658,-1.1659,-1.1659,-1.1651,-1.1642,-1.167,-1.1666,-1.1672,-1.1673,-1.1663,-1.1662,-1.166,-1.1636,-1.1636,-1.1661,-1.166,-1.166,-1.166,0,0,0,0,0,0,0,-1.1663,-1.1661,-1.1646,-1.1657,-1.1658,-1.1664,-1.1664,-1.1649,-1.1659,-1.1666,-1.1668,-1.1668,-1.1664,-1.1661,-1.166,-1.1636,-1.1661,-1.166,-1.1659,-1.1659,-1.1591,-1.159,0,0,0,0,0,0,-1.1662,-1.1662,-1.1646,-1.1646,-1.1664,-1.1663,-1.1663,-1.1658,-1.1659,-1.166,-1.1667,-1.1669,-1.1662,-1.1661,-1.1659,-1.1627,-1.166,-1.1659,-1.1658,-1.1592,-1.1591,-1.159,0,0,0,0,0,0,-1.1662,-1.166,-1.1646,-1.1654,-1.1653,-1.1661,-1.1655,-1.1657,-1.1654,-1.1659,-1.1661,-1.1662,-1.1663,-1.1661,-1.1643,-1.1628,-1.1658,-1.1657,-1.1594,-1.1592,-1.159,-1.1563,0,0,0,0,0,0,-1.1663,-1.166,-1.165,-1.1654,-1.1652,-1.163,-1.1655,-1.1657,-1.1653,-1.1655,-1.1655,-1.1656,-1.1664,-1.1644,-1.1642,-1.1626,-1.1656,-1.1595,-1.1593,-1.1591,-1.1565,-1.156,-1.1556,0,0,0,0,0,-1.1664,-1.1641,-1.165,-1.1648,-1.164,-1.1629,-1.1628,-1.1638,-1.1651,-1.1641,-1.1645,-1.1656,-1.163,-1.1642,-1.1639,-1.1624,-1.1596,-1.1593,-1.1591,-1.1567,-1.1561,-1.1556,0,0,0,0,0,0,-1.1634,-1.1642,-1.1651,-1.163,-1.1629,-1.1633,-1.1621,-1.1632,-1.1626,-1.1628,-1.164,-1.164,-1.1619,-1.162,-1.1633,-1.1597,-1.1615,-1.1612,-1.1598,-1.1592,-1.1588,-1.1588,-1.1655,0,0,0,0,0,-1.1625,-1.1616,-1.1624,-1.1604,-1.1603,-1.1612,-1.1607,-1.1616,-1.1615,-1.1614,-1.1616,-1.1613,-1.1605,-1.1598,-1.1591,-1.1565,-1.1566,-1.1553,-1.1549,-1.1545,-1.1542,-1.153,-1.1524,-1.1582,-1.1582,-1.1582,0,0,-1.1606,-1.1609,-1.1603,-1.1598,-1.1598,-1.1589,-1.1611,-1.16,-1.1592,-1.1611,-1.1595,-1.1596,-1.1594,-1.1573,-1.1563,-1.1572,-1.1527,-1.1542,-1.1539,-1.1538,-1.1527,-1.1521,-1.1516,-1.158,-1.1581,-1.1581,0,0,-1.1567,-1.1568,-1.1553,-1.1553,-1.1554,-1.1561,-1.1557,-1.156,-1.1563,-1.1546,-1.1561,-1.1552,-1.1537,-1.1535,-1.1532,-1.1494,-1.1505,-1.1491,-1.1468,-1.1456,-1.1452,-1.1448,-1.1435,-1.143,-1.1488,-1.1488,-1.1488,0,-1.1543,-1.153,-1.1543,-1.1531,-1.1529,-1.1548,-1.1532,-1.1531,-1.1528,-1.1526,-1.1536,-1.1519,-1.1518,-1.1497,-1.1488,-1.1485,-1.1481,-1.1491,-1.1451,-1.1448,-1.1444,-1.1432,-1.1427,-1.1487,-1.1487,-1.1487,-1.1487,0,-1.15,-1.1491,-1.1478,-1.1478,-1.1474,-1.146,-1.147,-1.1465,-1.1473,-1.1478,-1.1462,-1.1463,-1.1456,-1.1452,-1.1459,-1.1432,-1.1438,-1.145,-1.1468,-1.1437,-1.1425,-1.1421,-1.1484,-1.1485,-1.1485,-1.1486,0,0,-1.1441,-1.145,-1.1445,-1.1445,-1.1448,-1.1441,-1.1428,-1.1423,-1.1418,-1.1416,-1.1405,-1.1393,-1.1405,-1.1401,-1.1409,-1.1398,-1.1369,-1.1412,-1.1412,-1.1404,-1.134,-1.1331,-1.1325,-1.1377,-1.1376,-1.1375,-1.134,0,-1.1403,-1.1383,-1.1395,-1.1373,-1.1365,-1.1383,-1.1372,-1.1372,-1.1377,-1.137,-1.1375,-1.1366,-1.1382,-1.1381,-1.1371,-1.1375,-1.1356,-1.1377,-1.1366,-1.1366,-1.1366,-1.1319,-1.1309,-1.1276,-1.1336,-1.1335,-1.1334,0,-1.1356,-1.1355,-1.1332,-1.1338,-1.1335,-1.1325,-1.1322,-1.1316,-1.1316,-1.1321,-1.1318,-1.1329,-1.1316,-1.1335,-1.1317,-1.1332,-1.1328,-1.1329,-1.1328,-1.1327,-1.1348,-1.1317,-1.1265,-1.126,-1.1327,-1.1328,-1.1328,0,-1.1316,-1.1307,-1.1293,-1.1293,-1.13,-1.1292,-1.1294,-1.1297,-1.1293,-1.1291,-1.1289,-1.1284,-1.1281,-1.1277,-1.1286,-1.1299,-1.1267,-1.1287,-1.127,-1.127,-1.1262,-1.1263,-1.1209,-1.126,-1.126,-1.126,-1.126,0,-1.1272,-1.1258,-1.1275,-1.1266,-1.1251,-1.1265,-1.1249,-1.1253,-1.1255,-1.1247,-1.1262,-1.1254,-1.1266,-1.1259,-1.1266,-1.1251,-1.1249,-1.1252,-1.1254,-1.1251,-1.1251,-1.1248,-1.1251,-1.1259,-1.1259,-1.1259,-1.1259,0,-1.1224,-1.1235,-1.1221,-1.123,-1.1231,-1.1219,-1.1226,-1.1218,-1.1225,-1.1214,-1.1212,-1.1222,-1.1215,-1.1224,-1.1217,-1.1221,-1.1201,-1.1206,-1.1201,-1.1203,-1.1186,-1.1188,-1.113,-1.1123,-1.1177,-1.1177,-1.1176,0,-1.1196,-1.1185,-1.1193,-1.119,-1.1192,-1.1185,-1.1183,-1.1197,-1.1193,-1.1195,-1.1186,-1.1181,-1.1177,-1.1164,-1.117,-1.1165,-1.117,-1.115,-1.1169,-1.1167,-1.117,-1.1171,-1.117,-1.1146,-1.1145,-1.1145,-1.1144,0,-1.1144,-1.1151,-1.1147,-1.1146,-1.1143,-1.1142,-1.1142,-1.1138,-1.1153,-1.1148,-1.1142,-1.1139,-1.1133,-1.1127,-1.1124,-1.1126,-1.1137,-1.1139,-1.1135,-1.1131,-1.1129,-1.113,-1.1191,-1.114,-1.114,-1.1141,-1.1141,-1.1141,-1.1105,-1.1097,-1.1102,-1.1098,-1.11,-1.1101,-1.1094,-1.1101,-1.1096,-1.1093,-1.1101,-1.1093,-1.1095,-1.1093,-1.1093,-1.1086,-1.1095,-1.1089,-1.1087,-1.1086,-1.1084,-1.113,-1.1086,-1.1086,-1.1086,-1.1086,-1.1086,0,-1.1055,-1.1059,-1.1056,-1.1057,-1.1053,-1.1067,-1.1068,-1.1064,-1.1057,-1.1059,-1.1056,-1.1049,-1.1044,-1.105,-1.1046,-1.104,-1.1045,-1.1038,-1.1039,-1.1039,-1.1076,-1.108,-1.1034,-1.1034,-1.1034,-1.1034,-1.1034,-1.1034,-1.1028,-1.1016,-1.1023,-1.1012,-1.1017,-1.101,-1.101,-1.101,-1.1012,-1.1004,-1.1001,-1.1006,-1.1009,-1.1006,-1.1002,-1.1004,-1.1002,-1.0993,-1.0997,-1.1031,-1.1036,-1.1041,-1.1045,-1.0992,-1.0992,-1.096,-1.096,-1.096]},{"header":{"parameterUnit":"m.s-1","parameterCategory":1,"la1":30.2991,"la2":30.254,"lo1":-89.0895,"lo2":-89.0444,"dy":0.0017,"dx":0.0017,"nx":28,"ny":28,"refTime":"2024-06-20T21:00:00:Z","depth":0,"parameterNumber":3,"parameterNumberName":"V-component_of_WINDS"},"data":[0,0,0,0,0,0,0,0,0,0,0,0,0,0,0,0,0,0,0,0,0,0,0,0,0,0,0,0,0,0,0,0,0,0,0,0,0,0,0,0,0,0,0,0,0,0,0,0,0,0,0,0,0,0,0,0,0,0,-2.3758,-2.3758,0,-2.378,-2.378,-2.378,-2.376,-2.3759,-2.3758,-2.3758,-2.3778,-2.3779,-2.378,0,0,0,0,0,0,0,0,0,0,0,0,0,-2.3698,-2.3699,-2.3758,-2.3758,-2.3759,-2.378,-2.378,-2.378,-2.376,-2.3759,-2.3758,-2.3757,-2.3777,-2.3779,-2.378,0,0,0,0,0,0,0,0,0,0,0,0,0,-2.3722,-2.37,-2.3758,-2.3751,-2.3751,-2.378,-2.378,-2.378,-2.376,-2.3759,-2.3758,-2.3757,-2.3777,-2.3779,-2.3781,-2.3817,0,0,-2.3786,-2.3787,0,0,0,0,0,0,0,0,-2.3721,-2.3724,-2.3752,-2.3752,-2.3751,-2.3766,-2.3766,-2.3792,-2.3761,-2.3757,-2.3758,-2.3756,-2.3775,-2.3777,-2.3783,-2.3818,-2.3818,-2.3787,-2.3788,-2.3789,-2.3789,0,0,0,0,0,0,0,-2.3719,-2.3723,-2.3767,-2.3752,-2.3752,-2.3747,-2.3749,-2.3771,-2.3772,-2.3757,-2.3756,-2.3758,-2.3774,-2.3782,-2.3784,-2.3819,-2.3787,-2.3788,-2.3789,-2.379,-2.3885,-2.3886,0,0,0,0,0,0,-2.3719,-2.3722,-2.3766,-2.3767,-2.3733,-2.3749,-2.3751,-2.3762,-2.3772,-2.3772,-2.3759,-2.3757,-2.3779,-2.3781,-2.3784,-2.3828,-2.3789,-2.379,-2.3792,-2.3884,-2.3885,-2.3887,0,0,0,0,0,0,-2.3717,-2.3723,-2.3765,-2.3744,-2.3749,-2.3751,-2.3764,-2.3764,-2.3771,-2.3774,-2.3774,-2.3767,-2.3778,-2.3782,-2.3809,-2.3829,-2.3791,-2.3793,-2.3882,-2.3884,-2.3886,-2.3916,0,0,0,0,0,0,-2.3716,-2.3722,-2.3736,-2.3745,-2.3751,-2.379,-2.3765,-2.3765,-2.3775,-2.3772,-2.3781,-2.3781,-2.3777,-2.3806,-2.3811,-2.3831,-2.3795,-2.388,-2.3883,-2.3885,-2.3913,-2.3919,-2.3924,0,0,0,0,0,-2.3714,-2.3743,-2.3737,-2.3743,-2.3768,-2.3791,-2.3795,-2.379,-2.3776,-2.379,-2.3792,-2.3781,-2.3826,-2.3809,-2.3815,-2.3835,-2.3879,-2.3882,-2.3885,-2.3911,-2.3918,-2.3924,0,0,0,0,0,0,-2.3736,-2.3744,-2.3738,-2.3771,-2.3781,-2.3788,-2.3806,-2.3797,-2.3811,-2.3808,-2.3801,-2.3804,-2.3833,-2.3836,-2.3818,-2.3871,-2.385,-2.3854,-2.3868,-2.3874,-2.3879,-2.3879,-2.3796,0,0,0,0,0,-2.3745,-2.3764,-2.3769,-2.3798,-2.3804,-2.3804,-2.3814,-2.381,-2.3819,-2.3823,-2.3827,-2.3836,-2.3853,-2.3863,-2.3878,-2.3913,-2.3916,-2.393,-2.3935,-2.3939,-2.3943,-2.3963,-2.397,-2.3897,-2.3897,-2.3897,0,0,-2.3763,-2.377,-2.3782,-2.3803,-2.381,-2.383,-2.3807,-2.3828,-2.3843,-2.3826,-2.3853,-2.3856,-2.3866,-2.3898,-2.3912,-2.3902,-2.3964,-2.3943,-2.3947,-2.3948,-2.3967,-2.3974,-2.3981,-2.3899,-2.3898,-2.3898,0,0,-2.3807,-2.3814,-2.3839,-2.3847,-2.3859,-2.3859,-2.3865,-2.3874,-2.3876,-2.3903,-2.3891,-2.3907,-2.3935,-2.3943,-2.3951,-2.3999,-2.3989,-2.4004,-2.4031,-2.4051,-2.4056,-2.4062,-2.408,-2.4086,-2.4008,-2.4008,-2.4008,0,-2.3828,-2.3858,-2.3853,-2.3876,-2.3886,-2.3872,-2.3898,-2.3906,-2.3921,-2.3928,-2.3916,-2.3952,-2.3958,-2.3992,-2.4004,-2.401,-2.4017,-2.4003,-2.4056,-2.4061,-2.4066,-2.4083,-2.409,-2.4009,-2.4009,-2.4009,-2.4009,0,-2.3884,-2.3905,-2.3924,-2.3941,-2.3952,-2.3976,-2.3975,-2.3988,-2.3983,-2.3984,-2.4012,-2.4018,-2.4035,-2.4043,-2.4037,-2.4077,-2.407,-2.4057,-2.4036,-2.4075,-2.4091,-2.4098,-2.4012,-2.4011,-2.4011,-2.401,0,0,-2.3943,-2.3958,-2.3965,-2.3973,-2.3985,-2.4001,-2.4024,-2.4041,-2.4053,-2.4063,-2.4084,-2.4108,-2.4097,-2.4105,-2.4101,-2.4118,-2.4157,-2.4103,-2.4103,-2.4114,-2.4202,-2.4213,-2.422,-2.415,-2.4151,-2.4152,-2.4202,0,-2.3988,-2.403,-2.4027,-2.4067,-2.4086,-2.4074,-2.4095,-2.4104,-2.4106,-2.4122,-2.4124,-2.4142,-2.4125,-2.413,-2.4147,-2.4149,-2.4175,-2.4145,-2.4169,-2.417,-2.4169,-2.4229,-2.424,-2.4286,-2.4208,-2.4209,-2.421,0,-2.4047,-2.4062,-2.4104,-2.4114,-2.4122,-2.4141,-2.4157,-2.4173,-2.4183,-2.4183,-2.4194,-2.4187,-2.421,-2.4188,-2.4221,-2.4201,-2.421,-2.4213,-2.4215,-2.4218,-2.4193,-2.4235,-2.43,-2.4308,-2.4219,-2.4219,-2.4218,0,-2.4087,-2.4117,-2.4147,-2.4154,-2.4166,-2.418,-2.4186,-2.4195,-2.4206,-2.422,-2.4227,-2.4243,-2.4252,-2.4264,-2.4262,-2.4246,-2.4296,-2.4273,-2.4297,-2.4297,-2.4309,-2.4309,-2.4379,-2.4313,-2.4313,-2.4313,-2.4313,0,-2.4139,-2.4166,-2.4166,-2.4184,-2.4213,-2.4209,-2.4238,-2.4242,-2.4251,-2.4269,-2.4259,-2.4276,-2.4271,-2.4289,-2.4286,-2.4315,-2.4318,-2.4319,-2.4319,-2.4321,-2.4321,-2.4328,-2.4325,-2.4315,-2.4314,-2.4314,-2.4313,0,-2.419,-2.4191,-2.4222,-2.4232,-2.4235,-2.4256,-2.4264,-2.4281,-2.4283,-2.4306,-2.4312,-2.4313,-2.4333,-2.4332,-2.4354,-2.4352,-2.4388,-2.4382,-2.4385,-2.4384,-2.4409,-2.4407,-2.4487,-2.4497,-2.4424,-2.4424,-2.4425,0,-2.4223,-2.4244,-2.4256,-2.4269,-2.4276,-2.4295,-2.4307,-2.4303,-2.4316,-2.433,-2.4346,-2.4365,-2.438,-2.4413,-2.4415,-2.4432,-2.4428,-2.4455,-2.4431,-2.4433,-2.4431,-2.443,-2.4433,-2.446,-2.4461,-2.4462,-2.4462,0,-2.4284,-2.4283,-2.4301,-2.4319,-2.4334,-2.4348,-2.436,-2.4371,-2.4369,-2.4383,-2.4404,-2.4416,-2.4439,-2.4459,-2.4475,-2.448,-2.4472,-2.447,-2.4477,-2.448,-2.4481,-2.4482,-2.4399,-2.4468,-2.4468,-2.4467,-2.4467,-2.4467,-2.4328,-2.4346,-2.4358,-2.4378,-2.4388,-2.44,-2.4417,-2.4421,-2.4439,-2.4458,-2.4455,-2.4479,-2.4489,-2.451,-2.4517,-2.4536,-2.4526,-2.4535,-2.4538,-2.4541,-2.4544,-2.4477,-2.4538,-2.4538,-2.4538,-2.4538,-2.4538,0,-2.4389,-2.4396,-2.4415,-2.4434,-2.445,-2.4441,-2.4454,-2.4468,-2.449,-2.4501,-2.4516,-2.4541,-2.456,-2.4565,-2.4583,-2.4597,-2.4593,-2.4602,-2.4601,-2.4603,-2.4551,-2.4544,-2.4605,-2.4605,-2.4605,-2.4605,-2.4604,-2.4604,-2.4422,-2.4453,-2.4454,-2.449,-2.4497,-2.4521,-2.453,-2.4541,-2.455,-2.4579,-2.4595,-2.4598,-2.4607,-2.4626,-2.4643,-2.4643,-2.4651,-2.4662,-2.4661,-2.4613,-2.4606,-2.46,-2.4594,-2.4663,-2.4663,-2.4712,-2.4712,-2.4712]}]]